Location: Unspecified
(41.9031°N, 12.4386°E)
Time: 06:33:39
(UTC+02:00)

ISS - Pass Details

Date: 04 August 2020
Orbit: 418 x 420 km, 51.6° (Epoch: 12 August)

Event Time Altitude Azimuth Distance (km) Brightness Sun altitude
Rises 21:12:49 0° 297° (WNW) 2,368 2.4 -8.7°
Reaches altitude 10° 21:15:04 10° 286° (WNW) 1,501 0.5 -9.1°
Maximum altitude 21:18:02 29° 224° (SW) 796 -2.2 -9.5°
Drops below altitude 10° 21:21:00 10° 162° (SSE) 1,493 -1.4 -10.0°
Enters shadow 21:21:06 10° 161° (SSE) 1,527 -1.4 -10.0°
